DCCHB EDXW-EDHL

Flight info

Callsign DCCHB
Flight time 0h 45m
Altitude 13000
Route DCT HNT/N0362F130 IFR DCT BOGMU BOGMU2V
Aircraft LJ35/M-SGHRWXY/SB1

Departure

Time 2026-05-05 19:20
Airport Westerland Sylt Airport (EDXW)

Arrival

Time 2026-05-05 20:06
Airport Lübeck Blankensee Airport (EDHL)
Time Latitude Longitude Altitude Speed Heading
2026-05-05 19:10 54.91223 8.32548 19 ft 0 kts 239°
2026-05-05 19:14 54.91220 8.32539 19 ft 3 kts 233°
2026-05-05 19:14 54.91192 8.32558 19 ft 8 kts 121°
2026-05-05 19:15 54.91146 8.32652 19 ft 12 kts 153°
2026-05-05 19:15 54.91087 8.32741 19 ft 12 kts 107°
2026-05-05 19:15 54.91062 8.32866 27 ft 10 kts 114°
2026-05-05 19:15 54.91007 8.33011 21 ft 18 kts 131°
2026-05-05 19:16 54.90899 8.33155 22 ft 22 kts 153°
2026-05-05 19:16 54.90750 8.33221 27 ft 21 kts 176°
2026-05-05 19:16 54.90605 8.33240 26 ft 19 kts 176°
2026-05-05 19:16 54.90487 8.33278 26 ft 18 kts 160°
2026-05-05 19:17 54.90381 8.33382 24 ft 16 kts 142°
2026-05-05 19:17 54.90308 8.33527 23 ft 15 kts 122°
2026-05-05 19:17 54.90268 8.33683 25 ft 15 kts 105°
2026-05-05 19:17 54.90249 8.33881 23 ft 18 kts 99°
2026-05-05 19:18 54.90236 8.34105 23 ft 18 kts 88°
2026-05-05 19:18 54.90251 8.34295 24 ft 15 kts 80°
2026-05-05 19:18 54.90270 8.34474 26 ft 16 kts 80°
2026-05-05 19:18 54.90288 8.34662 28 ft 15 kts 81°
2026-05-05 19:19 54.90307 8.34840 30 ft 15 kts 79°
2026-05-05 19:19 54.90326 8.35029 31 ft 13 kts 76°
2026-05-05 19:19 54.90370 8.35151 32 ft 12 kts 51°
2026-05-05 19:19 54.90480 8.35093 32 ft 46 kts 327°
2026-05-05 19:20 54.90993 8.34457 36 ft 131 kts 326°
2026-05-05 19:20 54.91785 8.33461 413 ft 145 kts 327°
2026-05-05 19:20 54.92634 8.32369 717 ft 154 kts 327°
2026-05-05 19:20 54.93531 8.31204 943 ft 167 kts 327°
2026-05-05 19:21 54.94290 8.29642 1231 ft 180 kts 289°
2026-05-05 19:21 54.94012 8.27488 1559 ft 196 kts 236°
2026-05-05 19:21 54.92884 8.26117 1696 ft 203 kts 198°
2026-05-05 19:21 54.91502 8.25835 1842 ft 197 kts 178°
2026-05-05 19:22 54.90151 8.25848 1962 ft 192 kts 176°
2026-05-05 19:22 54.88810 8.25864 1993 ft 195 kts 181°
2026-05-05 19:22 54.87441 8.25671 2005 ft 200 kts 184°
2026-05-05 19:22 54.86030 8.25437 2006 ft 207 kts 181°
2026-05-05 19:23 54.84571 8.25338 2008 ft 213 kts 179°
2026-05-05 19:23 54.83080 8.25245 2012 ft 221 kts 180°
2026-05-05 19:23 54.82032 8.25182 2009 ft 225 kts 179°
2026-05-05 19:23 54.79933 8.25184 2011 ft 230 kts 175°
2026-05-05 19:24 54.78293 8.25341 2012 ft 235 kts 173°
2026-05-05 19:24 54.76667 8.25504 2011 ft 239 kts 174°
2026-05-05 19:24 54.74993 8.25607 2007 ft 243 kts 176°
2026-05-05 19:24 54.73289 8.25656 2007 ft 246 kts 177°
2026-05-05 19:25 54.71575 8.25699 2012 ft 247 kts 177°
2026-05-05 19:25 54.69847 8.25746 2008 ft 249 kts 176°
2026-05-05 19:25 54.68676 8.25768 2008 ft 249 kts 176°
2026-05-05 19:25 54.66375 8.25818 2002 ft 250 kts 176°
2026-05-05 19:26 54.65196 8.25840 2007 ft 251 kts 176°
2026-05-05 19:26 54.63450 8.25891 2004 ft 251 kts 176°
2026-05-05 19:26 54.61743 8.26119 1992 ft 248 kts 162°
2026-05-05 19:26 54.60298 8.27571 1985 ft 240 kts 130°
2026-05-05 19:27 54.59499 8.30030 2135 ft 235 kts 106°
2026-05-05 19:27 54.58989 8.32794 2565 ft 248 kts 106°
2026-05-05 19:27 54.58405 8.35606 3076 ft 248 kts 109°
2026-05-05 19:27 54.57768 8.38350 3557 ft 245 kts 110°
2026-05-05 19:28 54.57144 8.41070 4055 ft 243 kts 110°
2026-05-05 19:28 54.56432 8.43681 4490 ft 242 kts 124°
2026-05-05 19:28 54.55129 8.45445 4868 ft 246 kts 153°
2026-05-05 19:28 54.53506 8.46372 5282 ft 246 kts 162°
2026-05-05 19:29 54.51843 8.47174 5706 ft 244 kts 162°
2026-05-05 19:29 54.50203 8.47974 6118 ft 246 kts 163°
2026-05-05 19:29 54.48555 8.48807 6520 ft 248 kts 163°
2026-05-05 19:29 54.46900 8.49671 6903 ft 249 kts 163°
2026-05-05 19:30 54.45238 8.50572 7252 ft 252 kts 163°
2026-05-05 19:30 54.43573 8.51415 7595 ft 254 kts 169°
2026-05-05 19:30 54.41791 8.51675 7953 ft 254 kts 182°
2026-05-05 19:30 54.40021 8.51536 8328 ft 255 kts 185°
2026-05-05 19:31 54.38269 8.51361 8697 ft 256 kts 186°
2026-05-05 19:31 54.36507 8.50960 8920 ft 259 kts 201°
2026-05-05 19:31 54.34989 8.49267 8919 ft 267 kts 229°
2026-05-05 19:31 54.34101 8.46444 8923 ft 276 kts 256°
2026-05-05 19:32 54.34070 8.43134 8927 ft 285 kts 281°
2026-05-05 19:32 54.34961 8.39983 8937 ft 295 kts 307°
2026-05-05 19:32 54.36318 8.38018 8934 ft 303 kts 328°
2026-05-05 19:32 54.38352 8.36931 8938 ft 313 kts 352°
2026-05-05 19:33 54.40532 8.37366 8940 ft 322 kts 16°
2026-05-05 19:33 54.42486 8.39287 8939 ft 329 kts 40°
2026-05-05 19:33 54.43844 8.42503 9417 ft 343 kts 64°
2026-05-05 19:33 54.44417 8.46552 9980 ft 358 kts 87°
2026-05-05 19:34 54.44199 8.50856 10570 ft 366 kts 99°
2026-05-05 19:34 54.43724 8.55190 11199 ft 373 kts 102°
2026-05-05 19:34 54.43151 8.59599 11873 ft 385 kts 104°
2026-05-05 19:35 54.41984 8.68809 12920 ft 409 kts 102°
2026-05-05 19:35 54.41175 8.73622 12928 ft 429 kts 112°
2026-05-05 19:35 54.39937 8.78395 12930 ft 445 kts 116°
2026-05-05 19:35 54.38679 8.83036 12928 ft 416 kts 116°
2026-05-05 19:36 54.37510 8.87377 12925 ft 396 kts 116°
2026-05-05 19:36 54.36369 8.91575 12916 ft 381 kts 117°
2026-05-05 19:36 54.35263 8.95622 12905 ft 370 kts 117°
2026-05-05 19:36 54.34159 8.99671 12903 ft 379 kts 116°
2026-05-05 19:37 54.33033 9.03800 12901 ft 389 kts 116°
2026-05-05 19:37 54.31867 9.08065 12904 ft 401 kts 116°
2026-05-05 19:37 54.30613 9.12407 12905 ft 412 kts 121°
2026-05-05 19:37 54.29078 9.16621 12909 ft 421 kts 125°
2026-05-05 19:38 54.27307 9.20628 12915 ft 424 kts 131°
2026-05-05 19:38 54.25383 9.24462 12917 ft 423 kts 133°
2026-05-05 19:38 54.23498 9.28336 12917 ft 423 kts 130°
2026-05-05 19:38 54.21736 9.32365 12921 ft 423 kts 128°
2026-05-05 19:39 54.19971 9.36382 12914 ft 423 kts 129°
2026-05-05 19:39 54.18139 9.40291 12918 ft 422 kts 131°
2026-05-05 19:39 54.16300 9.44193 12921 ft 422 kts 130°
2026-05-05 19:39 54.14498 9.48145 12918 ft 422 kts 129°
2026-05-05 19:40 54.12699 9.52104 12920 ft 422 kts 130°
2026-05-05 19:40 54.10906 9.55971 12917 ft 421 kts 130°
2026-05-05 19:40 54.09082 9.59883 12915 ft 421 kts 130°
2026-05-05 19:40 54.07270 9.63800 12694 ft 417 kts 130°
2026-05-05 19:41 54.05497 9.67636 12314 ft 407 kts 130°
2026-05-05 19:41 54.03759 9.71375 11933 ft 399 kts 130°
2026-05-05 19:41 54.02069 9.75000 11483 ft 377 kts 130°
2026-05-05 19:41 54.00508 9.78355 11023 ft 349 kts 130°
2026-05-05 19:42 53.99041 9.81500 10553 ft 328 kts 130°
2026-05-05 19:42 53.97658 9.84459 10090 ft 312 kts 130°
2026-05-05 19:42 53.96332 9.87286 9606 ft 300 kts 130°
2026-05-05 19:42 53.95063 9.89999 9152 ft 288 kts 130°
2026-05-05 19:43 53.93840 9.92610 8702 ft 278 kts 130°
2026-05-05 19:43 53.92662 9.95114 8265 ft 270 kts 130°
2026-05-05 19:43 53.91501 9.97588 7836 ft 266 kts 130°
2026-05-05 19:43 53.90352 10.00032 7447 ft 257 kts 130°
2026-05-05 19:44 53.89242 10.02394 7067 ft 259 kts 129°
2026-05-05 19:44 53.88099 10.04815 6712 ft 265 kts 129°
2026-05-05 19:44 53.86966 10.07206 6382 ft 262 kts 129°
2026-05-05 19:44 53.85842 10.09596 6049 ft 254 kts 129°
2026-05-05 19:45 53.84764 10.11883 5735 ft 243 kts 128°
2026-05-05 19:45 53.83724 10.14083 5444 ft 239 kts 128°
2026-05-05 19:45 53.82666 10.16315 5188 ft 246 kts 128°
2026-05-05 19:45 53.81589 10.18592 4963 ft 249 kts 128°
2026-05-05 19:46 53.80493 10.20895 4753 ft 252 kts 128°
2026-05-05 19:46 53.79394 10.23218 4536 ft 253 kts 128°
2026-05-05 19:46 53.78288 10.25544 4329 ft 254 kts 128°
2026-05-05 19:46 53.77180 10.27875 4123 ft 255 kts 127°
2026-05-05 19:47 53.76069 10.30211 3928 ft 255 kts 127°
2026-05-05 19:47 53.75142 10.32725 3700 ft 253 kts 108°
2026-05-05 19:47 53.74731 10.35575 3566 ft 241 kts 99°
2026-05-05 19:47 53.74551 10.38256 3435 ft 221 kts 90°
2026-05-05 19:48 53.74631 10.40739 3262 ft 198 kts 80°
2026-05-05 19:48 53.74934 10.42773 3048 ft 170 kts 73°
2026-05-05 19:48 53.75267 10.44604 2974 ft 155 kts 73°
2026-05-05 19:48 53.75604 10.46342 2977 ft 156 kts 71°
2026-05-05 19:49 53.75939 10.48087 2846 ft 158 kts 72°
2026-05-05 19:49 53.76162 10.49267 2717 ft 154 kts 71°
2026-05-05 19:49 53.76605 10.51525 2443 ft 152 kts 71°
2026-05-05 19:49 53.76926 10.53190 2240 ft 146 kts 71°
2026-05-05 19:50 53.77234 10.54801 2036 ft 142 kts 71°
2026-05-05 19:50 53.77537 10.56373 1845 ft 139 kts 71°
2026-05-05 19:50 53.77834 10.57900 1661 ft 136 kts 71°
2026-05-05 19:50 53.78123 10.59403 1477 ft 133 kts 71°
2026-05-05 19:51 53.78407 10.60886 1310 ft 131 kts 71°
2026-05-05 19:51 53.78687 10.62347 1107 ft 131 kts 70°
2026-05-05 19:51 53.78974 10.63831 916 ft 137 kts 71°
2026-05-05 19:51 53.79274 10.65392 718 ft 143 kts 70°
2026-05-05 19:52 53.79583 10.66997 518 ft 143 kts 70°
2026-05-05 19:52 53.79884 10.68569 329 ft 141 kts 70°
2026-05-05 19:52 53.80186 10.70138 138 ft 143 kts 70°
2026-05-05 19:52 53.80505 10.71854 210 ft 164 kts 71°
2026-05-05 19:53 53.80874 10.73736 528 ft 163 kts 70°
2026-05-05 19:53 53.81243 10.75460 1025 ft 158 kts 69°
2026-05-05 19:53 53.81597 10.77172 1465 ft 150 kts 70°
2026-05-05 19:53 53.81890 10.78853 1858 ft 147 kts 73°
2026-05-05 19:54 53.82162 10.80499 2215 ft 145 kts 71°
2026-05-05 19:54 53.82595 10.82222 2538 ft 178 kts 53°
2026-05-05 19:54 53.83710 10.83411 2988 ft 204 kts 15°
2026-05-05 19:54 53.85107 10.83179 3408 ft 205 kts 338°
2026-05-05 19:55 53.86159 10.81602 3775 ft 202 kts 310°
2026-05-05 19:55 53.87027 10.79729 3996 ft 209 kts 310°
2026-05-05 19:55 53.87989 10.77694 4013 ft 232 kts 310°
2026-05-05 19:55 53.89042 10.75472 4015 ft 248 kts 310°
2026-05-05 19:56 53.89887 10.72943 4007 ft 0 kts 286°
2026-05-05 19:56 53.90238 10.72202 1459 ft 241 kts 304°
2026-05-05 19:56 53.91040 10.69767 2382 ft 234 kts 297°
2026-05-05 19:56 53.91515 10.67205 2770 ft 231 kts 280°
2026-05-05 19:57 53.91349 10.64468 3060 ft 238 kts 255°
2026-05-05 19:57 53.91043 10.62710 3276 ft 231 kts 253°
2026-05-05 19:57 53.90422 10.59334 3745 ft 221 kts 252°
2026-05-05 19:57 53.89963 10.56874 3991 ft 219 kts 252°
2026-05-05 19:58 53.89483 10.54316 3995 ft 236 kts 252°
2026-05-05 19:58 53.88974 10.51601 4004 ft 246 kts 252°
2026-05-05 19:58 53.88445 10.48752 4001 ft 259 kts 251°
2026-05-05 19:58 53.87888 10.45803 3898 ft 267 kts 252°
2026-05-05 19:59 53.87336 10.42863 3679 ft 258 kts 252°
2026-05-05 19:59 53.86693 10.40128 3458 ft 247 kts 236°
2026-05-05 19:59 53.85454 10.38130 3313 ft 248 kts 213°
2026-05-05 19:59 53.84003 10.36503 3223 ft 251 kts 211°
2026-05-05 20:00 53.82515 10.34982 3136 ft 245 kts 201°
2026-05-05 20:00 53.80867 10.34556 3093 ft 239 kts 172°
2026-05-05 20:00 53.79231 10.34977 3072 ft 238 kts 166°
2026-05-05 20:00 53.77621 10.35580 3007 ft 236 kts 156°
2026-05-05 20:01 53.76348 10.37192 2978 ft 227 kts 123°
2026-05-05 20:01 53.75709 10.39586 2981 ft 223 kts 105°
2026-05-05 20:01 53.75314 10.42102 2986 ft 220 kts 95°
2026-05-05 20:01 53.75381 10.44659 2986 ft 218 kts 79°
2026-05-05 20:02 53.75751 10.47114 2944 ft 213 kts 73°
2026-05-05 20:02 53.76198 10.49454 2691 ft 202 kts 71°
2026-05-05 20:02 53.76614 10.51566 2441 ft 173 kts 71°
2026-05-05 20:02 53.76954 10.53350 2209 ft 148 kts 71°
2026-05-05 20:03 53.77262 10.54949 2010 ft 140 kts 71°
2026-05-05 20:03 53.77548 10.56436 1827 ft 125 kts 71°
2026-05-05 20:03 53.77816 10.57835 1662 ft 129 kts 71°
2026-05-05 20:03 53.78101 10.59310 1487 ft 132 kts 71°
2026-05-05 20:04 53.78379 10.60757 1308 ft 128 kts 71°
2026-05-05 20:04 53.78654 10.62176 1127 ft 126 kts 71°
2026-05-05 20:04 53.78927 10.63597 945 ft 128 kts 71°
2026-05-05 20:04 53.79208 10.65060 764 ft 135 kts 70°
2026-05-05 20:05 53.79505 10.66597 583 ft 138 kts 71°
2026-05-05 20:05 53.79803 10.68152 369 ft 139 kts 71°
2026-05-05 20:05 53.80101 10.69691 198 ft 136 kts 70°
2026-05-05 20:05 53.80385 10.71161 56 ft 124 kts 72°
2026-05-05 20:06 53.80572 10.72135 55 ft 57 kts 73°
2026-05-05 20:06 53.80659 10.72597 55 ft 27 kts 72°
2026-05-05 20:06 53.80685 10.72679 52 ft 9 kts 272°
2026-05-05 20:06 53.80651 10.72543 53 ft 17 kts 256°
2026-05-05 20:07 53.80613 10.72326 52 ft 21 kts 249°
2026-05-05 20:07 53.80566 10.72119 55 ft 18 kts 254°
2026-05-05 20:07 53.80584 10.71933 53 ft 17 kts 296°
2026-05-05 20:07 53.80634 10.71735 52 ft 19 kts 290°
2026-05-05 20:08 53.80650 10.71517 56 ft 20 kts 249°
2026-05-05 20:08 53.80608 10.71281 56 ft 21 kts 252°
2026-05-05 20:08 53.80566 10.71058 56 ft 18 kts 251°
2026-05-05 20:08 53.80532 10.70882 52 ft 15 kts 252°
2026-05-05 20:09 53.80495 10.70695 55 ft 18 kts 251°
2026-05-05 20:09 53.80462 10.70522 55 ft 10 kts 251°
2026-05-05 20:09 53.80442 10.70418 53 ft 8 kts 252°
2026-05-05 20:09 53.80456 10.70350 54 ft 7 kts 330°
2026-05-05 20:10 53.80491 10.70315 56 ft 4 kts 323°
2026-05-05 20:10 53.80502 10.70301 56 ft 0 kts 321°